Simultaneous Nadir Overpasses (SNOs) Predictions

Prediction of SNOs between AURA and NPP Satellite Orbit:

Table of predicted SNOs for the next 14.0 days since TLE Epoch: 11/8/2012
Index Date (AURA) Time (AURA) AURA Lat,Lon Date (NPP) Time (NPP) NPP Lat,Lon Distance(km) Time Diff (sec)
1 11/10/2012 19:57:31 -79.64, -41.68 11/10/2012 19:56:21 -79.65, -41.64 0.89 70
2 11/10/2012 20:46:52 79.82, 127.32 11/10/2012 20:47:00 79.81, 127.18 3.08 8
3 11/13/2012 12:13:55 -79.76, 75.09 11/13/2012 12:13:13 -79.77, 75.20 2.26 42
4 11/13/2012 13:03:17 79.90,-116.18 11/13/2012 13:03:53 79.90,-116.24 1.34 36
5 11/16/2012 04:30:22 -79.79,-168.82 11/16/2012 04:30:08 -79.78,-168.86 0.87 14
6 11/16/2012 05:19:42 79.99, 0.48 11/16/2012 05:20:45 80.00, 0.58 2.32 63
7 11/18/2012 19:57:26 79.68, 138.59 11/18/2012 19:56:21 79.68, 138.67 1.70 65
8 11/18/2012 20:46:48 -79.83, -52.60 11/18/2012 20:47:01 -79.83, -52.70 2.13 13
9 11/21/2012 12:13:51 79.77,-104.80 11/21/2012 12:13:12 79.78,-104.67 2.68 39




NCC Satellite Simultaneous Nadir Overpasses (SNOs) Prediction Service
